Home   Weather   Palm Springs   Past weeks

Flag for USA Past Weather in Palm Springs, California, USA — Yesterday and Last 2 Weeks

Now
57 °F

Clear.


Feels Like: 55 °F
Forecast: 49 / 71 °F
Wind: 10 mph from Northwest

Location: Palm Springs Regional Airport

Current Time: Dec 2, 2016 at 8:56:01 pm

Latest Report: Dec 2, 2016 at 7:53 pm


Visibility: 10 mi

Pressure: 30.13 "Hg

Humidity: 14%

Dew Point: 8 °F

Location of Palm SpringsLocation

Past Weather in Palm Springs — Graph

°F

Palm Springs Temperature Yesterday

Maximum temperature yesterday: 66 °F (at 1:53 pm)
Minimum temperature yesterday: 48 °F (at 3:53 am)
Average temperature yesterday: 57 °F

High & Low Weather Summary for the Past Weeks

 TemperatureHumidityPressure
High77 °F (Nov 20, 12:53 pm)100% (Nov 21, 4:53 am)30.28 "Hg (Nov 21, 4:53 am)
Low45 °F (Nov 27, 4:53 am)8% (Nov 18, 11:53 am)29.75 "Hg (Nov 28, 1:53 pm)
Average60 °F34%30.03 "Hg
* Reported Nov 17 7:53 pm — Dec 2 7:53 pm, Palm Springs, Weather by CustomWeather, © 2016

Note: Actual official high and low records may vary slightly from our data, if they occured in-between our weather recording intervals... More about our weather records

Advertising

Palm Springs Weather History for the Previous 24 Hours

Scroll right to see more
 ConditionsComfort  
Time TempWeatherWind HumidityBarometerVisibility
7:53 pm
Fri, Dec 2
57 °FClear.10 mph14%30.13 "Hg10 mi
6:53 pm58 °FClear.12 mph14%30.11 "Hg10 mi
5:53 pm58 °FClear.14 mph14%30.10 "Hg10 mi
4:53 pm60 °FClear.17 mph12%30.08 "Hg10 mi
3:53 pm61 °FSunny.23 mph14%30.06 "Hg10 mi
2:53 pm63 °FSunny.23 mph13%30.03 "Hg10 mi
1:53 pm64 °FSunny.26 mph12%30.03 "Hg10 mi
12:53 pm64 °FSunny.21 mph13%30.02 "Hg10 mi
11:53 am63 °FSunny.25 mph14%30.03 "Hg10 mi
10:53 am63 °FScattered clouds.25 mph14%30.06 "Hg10 mi
9:53 am61 °FSunny.25 mph15%30.07 "Hg10 mi
8:53 am60 °FSunny.14 mph15%30.06 "Hg10 mi
7:53 am58 °FScattered clouds.14 mph16%30.05 "Hg10 mi
6:53 am57 °FScattered clouds.12 mph18%30.02 "Hg10 mi
5:53 am59 °FPassing clouds.14 mph18%29.99 "Hg10 mi
4:53 am60 °FPassing clouds.18 mph19%29.97 "Hg10 mi
3:53 am61 °FOvercast.15 mph20%29.94 "Hg10 mi
2:53 am60 °FPassing clouds.10 mph23%29.94 "Hg10 mi
1:53 am61 °FOvercast.10 mph21%29.93 "Hg10 mi
12:53 am55 °FPassing clouds.3 mph34%29.94 "Hg10 mi
11:53 pm
Thu, Dec 1
56 °FPassing clouds.6 mph33%29.95 "Hg10 mi
10:53 pm58 °FOvercast.5 mph30%29.95 "Hg10 mi
9:53 pm57 °FOvercast.6 mph36%29.94 "Hg10 mi
8:53 pm57 °FOvercast.No wind34%29.95 "Hg10 mi
Weather by CustomWeather, © 2016

See weather overviewHow to use our weather pages